TimeCDT,TemperatureF,Dew PointF,Humidity,Sea Level PressureIn,VisibilityMPH,Wind Direction,Wind SpeedMPH,Gust SpeedMPH,PrecipitationIn,Events,Conditions,WindDirDegrees,DateUTC
12:52 AM,41.0,34.0,76,30.07,10.0,Calm,Calm,-,N/A,,Clear,0,2013-03-15 05:52:00
1:52 AM,39.0,33.1,79,30.05,10.0,Calm,Calm,-,N/A,,Clear,0,2013-03-15 06:52:00
2:52 AM,39.0,33.1,79,30.03,10.0,Calm,Calm,-,N/A,,Clear,0,2013-03-15 07:52:00
3:52 AM,37.9,33.1,83,29.99,10.0,Calm,Calm,-,N/A,,Clear,0,2013-03-15 08:52:00
4:52 AM,35.1,30.9,85,29.96,10.0,Calm,Calm,-,N/A,,Clear,0,2013-03-15 09:52:00
5:52 AM,37.0,33.1,86,29.94,10.0,Calm,Calm,-,N/A,,Clear,0,2013-03-15 10:52:00
6:52 AM,36.0,33.1,89,29.91,10.0,Calm,Calm,-,N/A,,Clear,0,2013-03-15 11:52:00
7:52 AM,36.0,32.0,86,29.90,10.0,Calm,Calm,-,N/A,,Clear,0,2013-03-15 12:52:00
8:52 AM,39.0,35.1,86,29.89,10.0,Calm,Calm,-,N/A,,Clear,0,2013-03-15 13:52:00
9:52 AM,55.9,41.0,57,29.87,10.0,SW,11.5,-,N/A,,Clear,220,2013-03-15 14:52:00
10:52 AM,66.0,41.0,40,29.84,10.0,SW,9.2,-,N/A,,Clear,230,2013-03-15 15:52:00
11:52 AM,69.1,39.9,35,29.83,10.0,SSW,8.1,-,N/A,,Clear,200,2013-03-15 16:52:00
12:52 PM,73.9,37.9,27,29.80,10.0,WSW,10.4,-,N/A,,Clear,250,2013-03-15 17:52:00
1:52 PM,78.1,37.0,23,29.77,10.0,WSW,12.7,19.6,N/A,,Clear,240,2013-03-15 18:52:00
2:52 PM,81.0,39.0,22,29.73,10.0,South,8.1,-,N/A,,Clear,190,2013-03-15 19:52:00
3:52 PM,84.9,37.0,18,29.68,10.0,SW,13.8,18.4,N/A,,Clear,220,2013-03-15 20:52:00
4:52 PM,84.0,36.0,18,29.66,10.0,WSW,13.8,-,N/A,,Clear,240,2013-03-15 21:52:00
5:52 PM,82.0,35.1,18,29.64,10.0,WSW,13.8,20.7,N/A,,Clear,240,2013-03-15 22:52:00
6:52 PM,73.0,37.9,28,29.64,10.0,SW,5.8,-,N/A,,Clear,220,2013-03-15 23:52:00
7:52 PM,66.0,45.0,47,29.65,10.0,SSW,9.2,-,N/A,,Clear,210,2013-03-16 00:52:00
8:52 PM,66.9,46.0,47,29.67,10.0,West,3.5,-,N/A,,Clear,280,2013-03-16 01:52:00
9:52 PM,66.0,46.9,50,29.67,10.0,WSW,5.8,-,N/A,,Clear,250,2013-03-16 02:52:00
10:52 PM,55.0,45.0,69,29.70,10.0,NNE,6.9,-,N/A,,Clear,30,2013-03-16 03:52:00
11:52 PM,55.9,42.1,60,29.75,10.0,NNE,18.4,26.5,N/A,,Clear,20,2013-03-16 04:52:00